User: anonymous   Login
Location: ?
(35.3436°N, 139.3168°E)
Time: 15:14:18
(UTC+00:00)
Language:

SRMSAT - Orbit

View from above orbital plane
View from above orbital plane
View from above satellite
View from above satellite

Ground track
Ground track

The orbit data is extracted from the following two-line orbital elements,

1 37841U 11058D   21101.94207792  .00000307  00000-0  23353-4 0  9993
2 37841  19.9734 343.0746 0011784 282.8149 185.9848 14.10690266490292
Epoch (UTC): 11 April 2021 22:36:35
Eccentricity: 0.0011784
inclination: 19.9734°
perigee height: 848 km
apogee height: 865 km
right ascension of ascending node: 343.0746°
argument of perigee: 282.8149°
revolutions per day: 14.10690266
mean anomaly at epoch: 185.9848°
orbit number at epoch: 49029

The dashed part of the orbit path shows where the satellite is in the earth's shadow,  

DLR